Время (UTC), дата Ветер
(°,м/с) 
Видим.   Явления Облачность Т
(°С)
Тd
(°С)
f(%) Тe
(°С)
Pmin
(гПа)
dP
(гПа)
Po
(мм)
O2
(г/м3)
Тmin Tmax R s Состояние
почвы
00 01.02.12 тихо ()   н/о  ледяные иглы  ясно 
-34.4 -37.4 76 -34  1052.7  -0.5  759  352  -35.3    0.0  23  равномерный
сухой снег
100% 
03 01.02.12 тихо ()   4000 м  дымка  ясно 
-34.6 -37.4 76 -35  1052.4  -0.4  759  352           
06 01.02.12 тихо ()   4000 м  дымка  ясно 
-27.9 -30.9 76 -28  1050.6  -0.5  758  342           
09 01.02.12 тихо ()   4000 м  дымка  ясно 
-25.5 -28.6 75 -26  1049.8  -0.3  758  339           
12 01.02.12 тихо ()   н/о  дымка  ясно 
-28 -30.4 80 -28  1050.6  0.3  758  342    -24.5       
15 01.02.12 360 (С) н/о  дымка  ясно 
-28.5 -30.8 81 -29  1050.9  0.1  758  343           
18 01.02.12 260 (З) н/о  дымка  ясно 
-30.4 -32.7 80 -31  1051.3  0.2  759  346           
21 01.02.12 тихо ()   н/о  дымка  ясно 
-31.6 -33.8 80 -32  1051.2  -0.4  758  347           
00 02.02.12 тихо ()   4000 м    ясно 
-31.6 -33.8 80 -32  1050.5  -0.7  758  347  -32      23  равномерный
сухой снег
100% 
03 02.02.12 тихо ()   10 км    4/0 верхняя 
[Ci fib]
-30.1 -32.5 80 -30  1048.8  -1.3  750  342           
06 02.02.12 тихо ()   10 км    9/4 2000 м средняя, верхняя 
[Ac trans|Ci fib]
-24.7 -27.1 81 -25  1046.9  -1  756  337           
09 02.02.12 тихо ()   4000 м  дымка  5/3 2000 м средняя, верхняя 
[Ac trans|Ci fib]
-21.1 -24.4 75 -21  1044.2  -2.1  754  331           
12 02.02.12 250 (З) н/о  дымка  4/3 2000 м средняя, верхняя 
[Ac trans|Ci fib]
-23 -24.9 84 -23  1043.6  -0.8  754  333    -19.6       
15 02.02.12 250 (З) 4000 м    10/10 2000 м 
[Ac As]
-18.5 -21.8 75 -21  1041.6  -1.2  753  327           
18 02.02.12 тихо ()   4000 м    9/5 600 м кучево-дожд., средняя 
[Cb cap|Ac trans]
-19.7 -23 74 -20  1040  -1.8  752  328           
21 02.02.12 270 (З) 4000 м    10/10 2000 м 
[Ac As]
-18.7 -22 75 -19  1037.8  -2.1  750  326           
00 03.02.12 250 (З) 4000 м    10/10 2000 м 
[Ac As]
-19.6 -23.7 70 -24  1036.6  -1.2  749  327  -23.3      23  равномерный
сухой снег
100% 
03 03.02.12 220 (ЮЗ) >10 км    10/10 600 м кучево-дожд. 
[Cb cap]
-19.3 -23.4 70 -22  1034.8  -1.6  748  326           
06 03.02.12 240 (ЮЗ) >10 км  {ливн. осадки}  10/10 600 м кучево-дожд. 
[Cb cap]
-16.3 -21.4 65 -19  1032.8  -1.5  747  322           
09 03.02.12 240 (ЮЗ) >10 км    3/3 2000 м средняя 
[Ac trans]
-16.2 -21.2 65 -21  1031.3  -1.5  746  321           
12 03.02.12 240 (ЮЗ) 4000 м    ясно 
-18.7 -22.8 70 -21  1030.7  -0.9  745  324    -14.8  0.0     
15 03.02.12 240 (ЮЗ) 4000 м    5/3 2000 м средняя, верхняя 
[Ac trans|Ci fib]
-20 -23.3 75 -24  1030  -0.9  744  325           
18 03.02.12 240 (ЮЗ) 4000 м  слаб. ливневой снег  9/8 600 м кучево-дожд., средняя 
[Cb cap|Ac trans]
-20.4 -23.7 75 -26  1027.9  -2  743  325           
21 03.02.12 240 (ЮЗ) н/о  ливневой снег  10/10 600 м кучево-дожд. 
[Cb cap]
-21.5 -24 80 -27  1026.8  -1.2  742  326           
00 04.02.12 240 (ЮЗ) 5{12}  н/о  ливневой снег  10/10 600 м кучево-дожд. 
[Cb cap]
-21.4 -23.9 80 -28  1026.2  -0.6  741  326  -21.6    26  равномерный
сухой снег
100% 
03 04.02.12 240 (ЮЗ) 0500 м  ливневой снег  10/10 600 м кучево-дожд. 
[Cb cap]
-20.7 -23.2 81 -25  1027.6  1.4  743  325           
06 04.02.12 230 (ЮЗ) >10 км  слаб. ливневой снег  9/6 600 м кучево-дожд., верхняя 
[Cb cap|Ci fib]
-17.5 -21.7 70 -21  1029.3  2.2  744  322           
09 04.02.12 270 (З) >10 км  слаб. ливневой снег  10/10 600 м кучево-дожд. 
[Cb cap]
-15.2 -18.6 75 -15  1031.3  2.2  746  320           
12 04.02.12 270 (З) 4000 м  слаб. ливневой снег  10/10 600 м кучево-дожд. 
[Cb cap]
-15.4 -18.1 79 -18  1035.3  3.8  749  321    -14.8     
15 04.02.12 280 (З) 4000 м  слаб. ливневой снег  10/10 600 м кучево-дожд. 
[Cb cap]
-15.2 -17.9 80 -15  1039  3.6  751  322           
18 04.02.12 260 (З) 4000 м  слаб. ливневой снег  10/10 600 м кучево-дожд. 
[Cb cap]
-16.1 -18 86 -16  1043.1  3.8  754  324           
21 04.02.12 240 (ЮЗ) 4000 м  {ливн. осадки}  ясно 
-19 -21.6 80 -23  1044.9  1.3  755  329           
00 05.02.12 250 (З) 4000 м  {ливн. осадки}  ясно 
-20.6 -23.1 81 -25  1047.7  2.4  757  332  -21    0.0  27  равномерный
сухой снег
100% 
03 05.02.12 240 (ЮЗ) >10 км  позёмок  ясно 
-20.1 -22.7 80 -26  1049.6  758  332           
06 05.02.12 240 (ЮЗ) >10 км    8/0 верхняя 
[Ci]
-16.9 -20.3 75 -22  1049.1  758  327           
09 05.02.12 240 (ЮЗ) >10 км    9/3 600 м кучево-дожд., верхняя 
[Cb cap|Ci]
-15.4 -18.8 75 -19  1048.7  -0.1  758  325           
12 05.02.12 250 (З) 4000 м  слаб. ливневой снег  9/4 600 м кучево-дожд., средняя, верхняя 
[Cb cap|Ac trans|Ci fib]
-17.2 -19.8 81 -21  1048.9  -0.1  758  328    -14.7  0.0     
15 05.02.12 260 (З) 4000 м  {ливн. осадки}  9/0 2000 м средняя 
[Ac trans]
-17.2 -19.8 81 -20  1048.5  -0.4  758  328           
18 05.02.12 240 (ЮЗ) 4000 м  слаб. ливневой снег  9/8 600 м кучево-дожд., средняя 
[Cb cap|Ac trans]
-17.9 -21.2 75 -22  1048.6  -0.1  758  328           
21 05.02.12 240 (ЮЗ) 4000 м  слаб. ливневой снег  10/10 600 м кучево-дожд. 
[Cb cap]
-18.9 -21.5 80 -23  1048.7  758  330           
00 06.02.12 240 (ЮЗ) 4000 м  слаб. ливневой снег  10/10 600 м кучево-дожд. 
[Cb cap]
-19.7 -22.3 80 -24  1050.2  1.2  759  331  -19.7    0.0  27  равномерный
сухой снег
100% 
03 06.02.12 240 (ЮЗ) >10 км  слаб. ливневой снег  9/5 600 м кучево-дожд., верхняя 
[Cb cap|Ci fib]
-19.2 -22.5 75 -22  1050.9    760  331           
06 06.02.12 250 (З) >10 км  слаб. ливневой снег  9/6 600 м кучево-дожд., средняя 
[Cb cap|Ac trans]
-15.9 -19.3 75 -18  1051.4  0.9  760  327           
09 06.02.12 250 (З) >10 км  слаб. ливневой снег  9/8 600 м кучево-дожд., средняя 
[Cb cap|Ac trans]
-14.6 -18.1 74 -18  1051.7  0.6  761  325           
12 06.02.12 240 (ЮЗ) 4000 м  {ливн. осадки}  9/3 600 м кучево-дожд., средняя, верхняя 
[Cb cap|Ac lent|Ci fib]
-15.5 -18.2 80 -19  1052.2  0.3  761  327    -14  0.0     
15 06.02.12 240 (ЮЗ) 4000 м  слаб. ливневой снег  9/5 600 м кучево-дожд., средняя, верхняя 
[Cb cap|Ac lent|Ci fib]
-16.5 -19.1 80 -20  1053.5  1.1  762  328           
18 06.02.12 270 (З) 4000 м  слаб. ливневой снег  9/5 600 м кучево-дожд., средняя, верхняя 
[Cb cap|Ac trans|Ci fib]
-16.4 -19 81 -19  1052.9  -0.6  761  328           
00 07.02.12 240 (ЮЗ) 7{14}  4000 м  слаб. ливневой снег  10/6 600 м кучево-дожд., средняя 
[Cb cap|As op]
-16.7 -19.3 80 -24  1051.1  -0.4  760  328  -17.4    0.4  24  равномерный
сухой снег
100% 
06 07.02.12 240 (ЮЗ) 6{12}  >10 км  слаб. ливневой снег  10/10 600 м кучево-дожд. 
[Cb cap]
-14.5 -17.9 75 -21  1050.7  -0.4  760  325           
12 07.02.12 250 (З) 4000 м  слаб. ливневой снег  10/8 600 м кучево-дожд., средняя 
[Cb cap|Ac trans]
-14.5 -17.2 80 -19  1049.9  -0.2  759  325    -12.8  0.0     
15 07.02.12 260 (З) 4000 м  слаб. ливневой снег  9/5 600 м кучево-дожд., средняя 
[Cb cap|Ac trans]
-14.3 -17 80 -18  1049.8  -0.1  759  324           
18 07.02.12 240 (ЮЗ) 4000 м  слаб. ливневой снег  9/6 600 м кучево-дожд., средняя 
[Cb cap|Ac trans]
-14.5 -17.3 79 -20  1047.8  -1.9  758  324           
21 07.02.12 240 (ЮЗ) 4000 м  слаб. ливневой снег  10/10 600 м кучево-дожд. 
[Cb cap]
-14.7 -17.4 80 -18  1047  -0.9  757  324           
00 08.02.12 230 (ЮЗ) 4000 м  слаб. ливневой снег  10/10 600 м кучево-дожд. 
[Cb cap]
-15.1 -17.8 79 -20  1045.6  -1.3  756  324  -15.1    0.2  23  равномерный
сухой снег
100% 
03 08.02.12 240 (ЮЗ) >10 км  в посл. час ливневой снег  3/3 2000 м средняя 
[Ac trans]
-14.6 -17.3 80 -17  1044.6  -0.8  756  323           
06 08.02.12 250 (З) >10 км  слаб. ливневой снег  5/3 600 м кучево-дожд., средняя 
[Cb cap|Ac trans]
-11.2 -15.6 70 -15  1043  -1.2  755  318           
09 08.02.12 250 (З) >10 км  слаб. ливневой снег  8/6 600 м кучево-дожд., средняя 
[Cb cap|Ac trans]
-10.9 -15.3 70 -14  1041.7  -1.2  754  318           
12 08.02.12 240 (ЮЗ) 6{12}  4000 м  позёмок{ливн. осадки}  9/6 600 м кучево-дожд., средняя 
[Cb cap|Ac trans]
-13.2 -16.7 75 -19  1041  -1  753  320    -10.3  0.0     
18 08.02.12 260 (З) 4000 м  слаб. ливневой снег  9/3 600 м кучево-дожд., средняя 
[Cb cap|Ac trans]
-14.2 -16.9 80 -18  1040  -0.5  752  321           
21 08.02.12 260 (З) 4000 м  слаб. ливневой снег  4/3 600 м кучево-дожд., средняя 
[Cb cap|Ac trans]
-16.6 -19.2 80 -19  1039.6  -0.8  752  324           
00 09.02.12 290 (З) 4000 м  слаб. ливневой снег  3/3 600 м кучево-дожд. 
[Cb cap]
-18.4 -20.3 85 -19  1039  -0.7  751  326  -18.4    0.0  23  равномерный
сухой снег
100% 
03 09.02.12 260 (З) >10 км  слаб. ливневой снег  10/10 600 м кучево-дожд. 
[Cb cap]
-16.6 -19.2 80 -17  1038.2  -0.7  751  324           
06 09.02.12 250 (З) >10 км  слаб. ливневой снег  10/4 600 м кучево-дожд., верхняя 
[Cb cap|Ci fib]
-13.6 -17.9 70 -17  1036.4  -1.2  750  319           
09 09.02.12 240 (ЮЗ) >10 км  {ливн. осадки}  9/3 2000 м средняя, верхняя 
[Ac trans|Ci fib]
-12.8 -18 65 -15  1034.9  -1.4  749  318           
12 09.02.12 260 (З) 4000 м  {ливн. осадки}  9/9 2000 м средняя 
[Ac trans]
-15.9 -20.1 70 -18  1034.1  -1.2  748  321    -11.6  0.0     
15 09.02.12 260 (З) 4000 м    5/5 2000 м средняя 
[Ac trans]
-17.1 -20.5 75 -20  1032.9  -1.2  747  323           
18 09.02.12 240 (ЮЗ) 4000 м    ясно 
-17.1 -20.5 75 -20  1031  -1.9  745  322           
21 09.02.12 250 (З) 4000 м    ясно 
-17.1 -21.3 70 -21  1028.6  -2.3  744  321           
00 10.02.12 240 (ЮЗ) 4000 м    5/0 2000 м 
-17.6 -21.7 70 -23  1027.6  -1.1  743  322  -17.6      23  равномерный
сухой снег
100% 
06 10.02.12 240 (ЮЗ) >10 км    9/0 верхняя 
[Cc]
-12 -18.2 60 -14  1024.3  -1.1  741  314           
09 10.02.12 250 (З) >10 км    10/0 верхняя 
[Cs]
-9.9 -17.8 52 -10  1022.5  -1.4  740  311           
12 10.02.12 240 (ЮЗ) 4000 м    8/0 верхняя 
[Ci fib]
-13.4 -18.6 65 -13  1022.7  -0.2  740  315    -9.8       
15 10.02.12 260 (З) 4000 м    9/6 600 м кучево-дожд., средняя 
[Cb cap|Ac trans]
-15.5 -18.9 75 -16  1022.7  -0.3  740  317           
18 10.02.12 290 (З) 4000 м  слаб. ливневой снег  10/10 600 м кучево-дожд. 
[Cb cap]
-14.9 -18.3 75 -17  1022.7  740  317           
21 10.02.12 240 (ЮЗ) 4000 м  слаб. ливневой снег  9/4 600 м кучево-дожд., средняя 
[Cb cap|Ac trans]
-19 -21.6 80 -19  1023.6  0.3  740  322           
00 11.02.12 260 (З) 4000 м  слаб. ливневой снег  10/10 600 м кучево-дожд. 
[Cb cap]
-18.9 -21.5 80 -22  1024.5  0.9  740  322  -19.5    0.0  23  равномерный
сухой снег
100% 
03 11.02.12 270 (З) >10 км  слаб. ливневой снег  9/3 600 м кучево-дожд., верхняя 
[Cb cap|Ci fib]
-19.9 -24 70 -23  1026.8  742  324           
06 11.02.12 290 (З) >10 км  слаб. ливневой снег  9/5 600 м кучево-дожд., верхняя 
[Cb cap|Ci fib]
-18.3 -24.2 60 -21  1027.8  1.2  743  322           
09 11.02.12 300 (СЗ) >10 км  слаб. ливневой снег  9/8 600 м кучево-дожд., верхняя 
[Cb cap|Ci fib]
-17.7 -23.6 59 -18  1028.6  0.8  743  322           
12 11.02.12 250 (З) 4000 м  {ливн. осадки}  ясно 
-22 -26.8 65 -22  1031.1  1.9  745  328    -17.2  0.0     
15 11.02.12 250 (З) 4000 м    ясно 
-23.4 -26.6 75 -26  1032.9  1.6  746  331           
18 11.02.12 240 (ЮЗ) 4000 м    ясно 
-23.4 -26.6 75 -26  1033.3  0.4  746  331           
21 11.02.12 250 (З) 4000 м    3/3 2000 м средняя 
[Ac lent]
-23.6 -26.8 75 -28  1033.7  0.2  747  331           
00 12.02.12 230 (ЮЗ) 4000 м    6/3 2000 м средняя, верхняя 
[Ac lent|Ci fib]
-23.4 -26.6 75 -26  1033.9  0.3  747  331  -24.1      23  равномерный
сухой снег
100% 
03 12.02.12 240 (ЮЗ) >10 км  слаб. снег  10/0 верхняя 
[Cs]
-22.2 -25.4 76 -25  1033.4  -0.3  747  329           
06 12.02.12 230 (ЮЗ) >10 км  слаб. снег  10/0 верхняя 
[Cs]
-18.4 -22.5 70 -23  1032.5  -0.3  746  324           
09 12.02.12 250 (З) >10 км  слаб. ливневой снег  10/10 600 м кучево-дожд. 
[Cb cap]
-16.5 -20.7 70 -20  1030.6  -1.6  745  321           
12 12.02.12 220 (ЮЗ) 4000 м  слаб. ливневой снег  9/6 600 м кучево-дожд., средняя 
[Cb cap|Ac trans]
-16.8 -20.2 75 -21  1029.9  -0.7  745  321    -16.1  0.2     
18 12.02.12 220 (ЮЗ) 6{15}  4000 м  слаб. ливневой снег  10/10 600 м кучево-дожд. 
[Cb cap]
-15.3 -18.7 75 -22  1025.1  -2  741  318           
00 13.02.12 260 (З) 4000 м  слаб. ливневой снег  10/10 600 м кучево-дожд. 
[Cb cap]
-13.3 -16 80 -15  1023.3  -1.9  740  315  -16.8    24  равномерный
сухой снег
100% 
03 13.02.12 260 (З) 4000 м  слаб. ливневой снег  10/10 600 м кучево-дожд. 
[Cb cap]
-13 -16.5 75 -17  1024.7  1.3  741  315           
06 13.02.12 260 (З) 4000 м  ливневой снег  10/10 600 м кучево-дожд. 
[Cb cap]
-12.7 -16.2 75 -16  1026.2  1.5  742  315           
09 13.02.12 250 (З) 4000 м  ливневой снег  10/10 600 м кучево-дожд. 
[Cb cap]
-12.9 -16.4 75 -15  1028.3  744  316           
12 13.02.12 260 (З) 4000 м  слаб. ливневой снег  10/10 600 м кучево-дожд. 
[Cb cap]
-13.9 -17.4 75 -17  1030.5  1.9  745  318    -11.8     
15 13.02.12 260 (З) н/о  ливневой снег  10/10 600 м кучево-дожд. 
[Cb cap]
-14 -16.7 80 -16  1032.8  2.3  747  319           
18 13.02.12 260 (З) н/о  ливневой снег  10/10 600 м кучево-дожд. 
[Cb cap]
-13.8 -15.8 85 -17  1034.7  1.8  748  319           
21 13.02.12 250 (З) н/о  ливневой снег  10/10 600 м кучево-дожд. 
[Cb cap]
-13.6 -15.6 85 -17  1035.9  1.3  749  319           
00 14.02.12 260 (З) н/о  ливневой снег  10/10 600 м кучево-дожд. 
[Cb cap]
-13.3 -16 80 -17  1038  751  319  -14    37  равномерный
сухой снег
100% 
03 14.02.12 260 (З) >10 км  слаб. ливневой снег  10/10 600 м кучево-дожд. 
[Cb cap]
-12.4 -15.1 81 -14  1039.8  1.9  752  319           
06 14.02.12 260 (З) 10 км  слаб. ливневой снег  10/10 600 м кучево-дожд. 
[Cb cap]
-10.8 -14.4 75 -13  1040.8  1.1  753  317           
09 14.02.12 240 (ЮЗ) >10 км  слаб. ливневой снег  10/8 600 м кучево-дожд., средняя, верхняя 
[Cb cap|Ac lent|Cs]
-9.7 -13.3 75 -11  1042  1.3  754  316           
12 14.02.12 260 (З) 4000 м  в посл. час ливневой снег  10/5 600 м кучево-дожд., средняя, верхняя 
[Cb cap|Ac lent|Cs]
-10.4 -14 75 -10  1043.2  1.1  755  317    -9.4  0.5     
15 14.02.12 тихо ()   4000 м  слаб. ливневой снег  10/10 600 м кучево-дожд. 
[Cb cap]
-11.7 -14.4 80 -12  1044.9  1.4  756  320           
18 14.02.12 230 (ЮЗ) 4000 м  слаб. ливневой снег  10/10 600 м кучево-дожд. 
[Cb cap]
-14 -15.3 89 -14  1046  0.7  756  323           
21 14.02.12 230 (ЮЗ) 4000 м  слаб. ливневой снег  10/10 600 м кучево-дожд. 
[Cb cap]
-15.5 -16.8 90 -16  1046.4  0.3  757  325           
00 15.02.12 230 (ЮЗ) 4000 м  слаб. ливневой снег  5/3 600 м кучево-дожд., средняя 
[Cb cap|Ac lent]
-17.1 -19 86 -17  1047.1  0.4  757  327  -17.1    0.0  37  равномерный
сухой снег
100% 
03 15.02.12 тихо ()   >10 км  слаб. ливневой снег  9/3 600 м кучево-дожд., средняя, верхняя 
[Cb cap|Ac lent|Ci fib]
-17.3 -18.5 91 -17  1048  0.9  758  327           
06 15.02.12 110 (В) 25  0100 м  дымка{ливн. осадки}  1/1 600 м 
-16   1047.1  -0.2  758             
09 15.02.12 тихо ()   >10 км    3/0 верхняя 
[Ci fib]
-11.5 -15.9 70 -12  1046.8  -0.7  757  320           
12 15.02.12 230 (ЮЗ) 4000 м    ясно 
-15.3 -17.2 85 -15  1046.8  757  325    -11  0.0     
15 15.02.12 230 (ЮЗ) 4000 м    ясно 
-16.1 -17.4 90 -16  1046.6  -0.3  757  325           
18 15.02.12 тихо ()   н/о  дымка  ясно 
-18.8 -20 90 -19  1047.1  757  329           
21 15.02.12 тихо ()   н/о  дымка  ясно 
-21.1 -22.3 90 -21  1047.1  -0.3  757  332           
00 16.02.12 тихо ()   н/о  дымка  ясно 
-24.4 -25.6 89 -24  1046.8  -0.7  756  336  -24.4      31  равномерный
сухой снег
100% 
03 16.02.12 тихо ()   2000 м  дымка  3/3 2000 м средняя 
[Ac trans]
-23.4 -24.6 90 -23  1046.6  756  335           
06 16.02.12 070 (В) 4000 м  дымка  ясно 
-17.9 -19.8 85 -18  1045.1  -0.7  755  327           
09 16.02.12 тихо ()   2000 м  дымка  ясно 
-14.9 -17.6 80 -15  1043.3  -1.4  754  323           
12 16.02.12 240 (ЮЗ) н/о  дымка  ясно 
-18.2 -20.1 85 -18  1043  -0.6  754  327    -13.9       
15 16.02.12 240 (ЮЗ) н/о  дымка  ясно 
-19.2 -20.4 90 -19  1042.4  -0.8  753  328           
18 16.02.12 240 (ЮЗ) н/о  дымка  ясно 
-20.8 -22.6 85 -21  1041.9  -0.8  753  330           
21 16.02.12 тихо ()   н/о  дымка  ясно 
-23 -24.9 84 -23  1040.1  -2  751  332           
00 17.02.12 тихо ()   н/о  ледяные иглы  ясно 
-25.2 -27 85 -25  1040.3  -0.1  751  335  -25.2      30  равномерный
сухой снег
100% 
03 17.02.12 тихо ()   4000 м  дымка  ясно 
-24.1 -25.3 90 -24  1039.6  -0.5  751  334           
06 17.02.12 060 (СВ) 4000 м  ледяные иглы  ясно 
-17.7 -19.6 85 -18  1037.5  -1.2  750  325           
09 17.02.12 тихо ()   4000 м  дымка  ясно 
-14.5 -17.9 75 -15  1035.7  -1.1  749  320           
12 17.02.12 230 (ЮЗ) н/о  дымка  ясно 
-18.2 -20.1 85 -18  1035.8  -0.5  749  325    -13.8       
15 17.02.12 250 (З) н/о  дымка  ясно 
-19.7 -20.9 90 -20  1034.9  -1.2  748  326           
18 17.02.12 260 (З) н/о  дымка  ясно 
-20.6 -21.8 90 -21  1033.4  -1.5  747  327           
21 17.02.12 260 (З) н/о  дымка  ясно 
-21.2 -22.4 90 -22  1031.9  -1.5  746  327           
00 18.02.12 тихо ()   н/о  дымка  ясно 
-22.3 -23.4 90 -22  1031.1  -0.9  745  329  -22.3      30  равномерный
сухой снег
100% 
03 18.02.12 тихо ()   4000 м  дымка  ясно 
-20.6 -21.8 90 -21  1030.6  -0.3  745  326           
06 18.02.12 030 (СВ) 4000 м  дымка  ясно 
-15.8 -17.7 85 -16  1028.9  -1  744  320           
09 18.02.12 тихо ()   10 км    ясно 
-13.6 -16.3 80 -14  1027.6  -0.8  743  317           
12 18.02.12 240 (ЮЗ) 4000 м    3/0 верхняя 
[Ci fib]
-18.4 -20.3 85 -19  1027.8  -0.6  743  323    -13.1       
15 18.02.12 240 (ЮЗ) н/о  дымка  ясно 
-19.4 -20.6 90 -20  1026.8  -1  742  323           
18 18.02.12 240 (ЮЗ) н/о  дымка  ясно 
-20.3 -22.2 84 -21  1025.7  -1.2  741  324           
21 18.02.12 тихо ()   н/о  дымка  ясно 
-23.7 -25.5 85 -24  1024.8  -1.5  740  328           
00 19.02.12 тихо ()   н/о  дымка  ясно 
-25.7 -27.4 86 -26  1024.5  -0.6  740  331  -25.7      30  равномерный
сухой снег
100% 
03 19.02.12 тихо ()   4000 м  дымка  10/0 верхняя 
[Cs]
-23.5 -24.7 90 -24  1024.1  0.1  740  328           
06 19.02.12 060 (СВ) 4000 м  дымка  6/0 верхняя 
[Ci fib]
-18.4 -20.3 85 -19  1022.9  -0.4  739  321           
09 19.02.12 тихо ()   4000 м  дымка  9/0 верхняя 
[Ci fib]
-15.1 -18.5 75 -15  1021.9  -0.6  739  317           
12 19.02.12 230 (ЮЗ) н/о  дымка  9/0 верхняя 
[Ci fib]
-18.6 -20.5 85 -19  1022.7  0.2  739  321    -13.6       
15 19.02.12 260 (З) н/о  дымка  ясно 
-19.8 -21 90 -20  1022.3  -0.5  739  323           
18 19.02.12 тихо ()   н/о  дымка  ясно 
-22.4 -23.6 89 -22  1022.3  -0.3  739  326           
21 19.02.12 тихо ()   н/о  дымка  ясно 
-24.2 -25.3 90 -24  1021.9  -0.7  738  328           
00 20.02.12 тихо ()   н/о  дымка  ясно 
-25.8 -27 89 -26  1021.9  -0.3  738  330  -26      29  равномерный
сухой снег
100% 
03 20.02.12 тихо ()   4000 м  дымка  ясно 
-22.8 -24 90 -23  1021.4  738  326           
06 20.02.12 070 (В) 4000 м  дымка  ясно 
-16.3 -18.9 80 -16  1019.9  -0.4  737  317           
09 20.02.12 тихо ()   2000 м  дымка  ясно 
-13.1 -17.4 70 -13  1019.2  -0.3  737  313           
12 20.02.12 250 (З) н/о  дымка  ясно 
-16.6 -17.9 90 -17  1020.2  0.6  738  318    -12.5       
15 20.02.12 тихо ()   н/о  дымка  ясно 
-17.7 -18.9 90 -18  1021.5  0.9  738  320           
18 20.02.12 тихо ()   н/о  дымка  ясно 
-19.8 -21 90 -20  1021.9  0.1  738  322           
21 20.02.12 тихо ()   н/о  дымка  ясно 
-21.3 -23 86 -21  1023.1  739  325           
00 21.02.12 тихо ()   н/о  дымка  9/0 верхняя 
[Ci fib]
-20.9 -22.8 84 -21  1023.7  0.6  740  324  -21.5      29  равномерный
сухой снег
100% 
03 21.02.12 240 (ЮЗ) 4000 м  слаб. ливневой снег  9/8 600 м кучево-дожд., средняя 
[Cb cap|Ac trans]
-19.5 -20.7 90 -20  1024.4  740  323           
06 21.02.12 240 (ЮЗ) >10 км  в посл. час ливневой снег  8/3 600 м кучево-дожд., средняя 
[Cb cap|Ac trans]
-10.7 -15.1 70 -14  1023.7  0.4  741  312           
09 21.02.12 230 (ЮЗ) >10 км    8/5 600 м кучево-дожд., средняя 
[Cb cap|Ac trans]
-9 -14 67 -9  1023.2  -0.2  741  310           
12 21.02.12 тихо ()   н/о  дымка  10/10 600 м кучево-дожд. 
[Cb cap]
-12.1 -14.8 80 -12  1023.9  0.2  741  314    -8.1  0.0     
15 21.02.12 тихо ()   н/о  слаб. ливневой снег  10/6 600 м кучево-дожд., средняя, верхняя 
[Cb cap|Ac trans|Ci fib]
-14.2 -16.2 85 -14  1024.6  0.4  741  316           
18 21.02.12 тихо ()   н/о  слаб. ливневой снег  8/6 600 м кучево-дожд., средняя 
[Cb cap|Ac trans]
-14.5 -15.8 90 -15  1025.1  0.5  741  317           
21 21.02.12 250 (З) н/о  в посл. час ливневой снег  8/3 600 м кучево-дожд., средняя, верхняя 
[Cb cap|Ac trans|Ci fib]
-16.1 -17.4 90 -16  1026.3  0.9  742  319           
00 22.02.12 тихо ()   н/о  слаб. ливневой снег  8/5 600 м кучево-дожд., средняя 
[Cb cap|Ac trans]
-16.6 -17.9 90 -17  1027.7  1.3  743  320  -17.4    0.2  27  равномерный
сухой снег
100% 
03 22.02.12 тихо ()   >10 км  слаб. ливневой снег  8/3 600 м кучево-дожд., средняя, верхняя 
[Cb cap|Ac lent|Ci fib]
-15.6 -16.9 90 -16  1029.8  2.3  745  320           
06 22.02.12 240 (ЮЗ) >10 км  слаб. ливневой снег  8/5 600 м кучево-дожд., верхняя 
[Cb cap|Ci fib]
-9.4 -15.1 63 -12  1030.2  1.1  746  312           
09 22.02.12 290 (З) >10 км  слаб. ливневой снег  8/8 600 м 
-8.9 -14.9 62 -11  1031.6  1.4  747  312           
12 22.02.12 260 (З) 4000 м  в посл. час ливневой снег  8/5 600 м кучево-дожд., верхняя 
[Cb cap|Ci fib]
-13 -16.5 75 -13  1034.3  748  318    -7.5  0.0     
15 22.02.12 250 (З) 4000 м    ясно 
-14.7 -16.7 85 -17  1036.5  1.9  750  321           
18 22.02.12 240 (ЮЗ) 4000 м    3/3 2000 м средняя 
[Ac lent]
-14.8 -16.8 85 -18  1037.9  1.3  751  321           
21 22.02.12 230 (ЮЗ) 4000 м    4/4 2000 м средняя 
[Ac trans]
-14.5 -17.2 80 -19  1038.4  0.7  751  321           
00 23.02.12 250 (З) 4000 м    8/6 2000 м средняя, верхняя 
[Ac trans|Ci fib]
-14.5 -17.2 80 -17  1039.2  0.8  752  321  -15.5      27  равномерный
сухой снег
100% 
03 23.02.12 250 (З) >10 км    9/3 2000 м средняя, верхняя 
[Ac lent|Cc]
-12.8 -16.3 75 -16  1040  0.8  752  319           
06 23.02.12 250 (З) >10 км  слаб. ливневой снег  9/4 600 м кучево-дожд., средняя, верхняя 
[Cb cap|Ac trans|Ci fib]
-8.3 -14.1 63 -10  1039.8  0.5  753  314           
09 23.02.12 250 (З) >10 км  слаб. ливневой снег  9/6 600 м кучево-дожд., верхняя 
[Cb cap|Ci fib]
-7 -13.8 58 -10  1039.3  -0.3  752  312           
12 23.02.12 260 (З) 4000 м  {ливн. осадки}  3/0 верхняя 
[Ci fib]
-10.5 -14.9 70 -10  1039.8  752  317    -6.6  0.0     
15 23.02.12 260 (З) 4000 м    ясно 
-11.2 -14.7 75 -13  1040.3  0.4  753  318           
18 23.02.12 240 (ЮЗ) 4000 м    ясно 
-12.3 -15.8 75 -16  1040.5  0.1  753  319           
21 23.02.12 230 (ЮЗ) 4000 м    ясно 
-13.2 -16.7 75 -17  1040.9  0.2  753  320           
00 24.02.12 230 (ЮЗ) 4000 м    4/0 верхняя 
[Ci fib]
-14 -16.7 80 -16  1040.6  -0.4  753  321  -14.2      27  равномерный
мокрый или
старый снег
100% 
03 24.02.12 230 (ЮЗ) >10 км    ясно 
-12.6 -16.1 75 -16  1040.2  -0.1  753  319           
06 24.02.12 230 (ЮЗ) >10 км    3/0 верхняя 
[Ci fib]
-7.3 -13.7 60 -9  1038.8  -0.7  752  313           
09 24.02.12 050 (СВ) >10 км    ясно 
-7.1 -12.9 63 -7  1037.6  -1.1  751  312           
12 24.02.12 230 (ЮЗ) 4000 м    ясно 
-12.3 -15 80 -12  1037.8  -0.5  751  318    -5.3       
15 24.02.12 тихо ()   4000 м    ясно 
-13.9 -15.2 90 -14  1037.8  -0.5  750  320           
18 24.02.12 180 (Ю) 4000 м    ясно 
-16.3 -17.6 90 -16  1037.1  -0.8  750  323           
21 24.02.12 тихо ()   4000 м    ясно 
-19.7 -20.9 90 -20  1037  -0.6  749  327           
00 25.02.12 тихо ()   4000 м    ясно 
-20.7 -21.9 90 -21  1037  -0.2  749  328  -20.7      27  равномерный
мокрый или
старый снег
100% 
03 25.02.12 040 (СВ) >10 км    ясно 
-16.8 -18.1 89 -17  1036.1  -0.3  749  323           
06 25.02.12 060 (СВ) >10 км    ясно 
-13.3 -16 80 -13  1034.6  -0.9  748  318           
09 25.02.12 тихо ()   >10 км    ясно 
-9.3 -14.9 64 -9  1032.7  -1.3  747  313           
12 25.02.12 250 (З) 4000 м    ясно 
-13 -15.7 80 -13  1032.4  -0.8  747  317    -8.7       
15 25.02.12 240 (ЮЗ) 4000 м    ясно 
-11 -14.6 75 -11  1031.1  -1  746  314           
18 25.02.12 тихо ()   4000 м    ясно 
-12.7 -15.4 80 -13  1030.2  -1.1  745  316           
21 25.02.12 270 (З) 4000 м    ясно 
-13.2 -16.7 75 -13  1030.1  -0.1  745  317           
00 26.02.12 270 (З) 4000 м    3/3 2000 м средняя 
[Ac trans]
-14.3 -17 80 -14  1029.3  -0.9  744  318  -14.3         
03 26.02.12 260 (З) >10 км    4/0 верхняя 
[Ci fib]
-12.6 -16.1 75 -15  1028.9  -0.1  744  316           
06 26.02.12 260 (З) >10 км    8/0 верхняя 
[Ci fib]
-6.9 -14.2 56 -10  1027.6  -0.6  744  309           
09 26.02.12 240 (ЮЗ) >10 км    6/0 верхняя 
[Ci fib]
-4.9 -15 45 -8  1026.4  -0.9  743  306           
12 26.02.12 280 (З) >10 км    6/0 верхняя 
[Ci fib]
-8.3 -14.6 61 -10  1026.7  -0.1  743  310    -4.4       
15 26.02.12 250 (З) 4000 м    ясно 
-10.6 -15.9 65 -10  1026.8  -0.2  743  313           
18 26.02.12 240 (ЮЗ) 4000 м    ясно 
-11.8 -15.3 75 -15  1027.3  0.2  743  314           
21 26.02.12 250 (З) 4000 м    ясно 
-13.6 -16.3 80 -18  1026.6  -0.7  743  316           
00 27.02.12 240 (ЮЗ) 4000 м    ясно 
-13.9 -17.4 75 -19  1026.8  743  317  -13.9      38  равномерный
мокрый или
старый снег
100% 
03 27.02.12 230 (ЮЗ) >10 км    3/0 верхняя 
[Ci fib]
-13.6 -17.1 75 -19  1026.8  0.2  743  316           
06 27.02.12 240 (ЮЗ) >10 км    3/0 верхняя 
[Ci sp]
-8.3 -14.1 63 -12  1025.9  -0.2  743  310           
09 27.02.12 240 (ЮЗ) >10 км    4/3 2000 м средняя, верхняя 
[Ac lent|Ci fib]
-5.3 -13.3 53 -9  1025  -0.5  742  306           
12 27.02.12 250 (З) >10 км    ясно 
-8.8 -14.8 62 -10  1025.9  0.3  743  310    -4.8       
15 27.02.12 260 (З) 4000 м    3/0 верхняя 
[Ci fib]
-10.8 -15.2 70 -13  1027.8  1.5  744  313           
18 27.02.12 240 (ЮЗ) 4000 м  слаб. ливневой снег  8/5 600 м кучево-дожд., верхняя 
[Cb cap|Ci fib]
-10.3 -14.7 70 -13  1027.9  0.3  744  313           
21 27.02.12 250 (З) 4000 м  слаб. ливневой снег  9/5 600 м кучево-дожд., верхняя 
[Cb cap|Ci fib]
-11.7 -15.2 75 -15  1028.8  0.6  744  315           
00 28.02.12 250 (З) 4000 м  слаб. ливневой снег  9/6 600 м кучево-дожд., верхняя 
[Cb cap|Ci fib]
-12.6 -16.1 75 -17  1029.4  0.6  745  316  -12.6    0.0  27  равномерный
сухой снег
100% 
03 28.02.12 210 (ЮЗ) >10 км  позёмок{ливн. осадки}  9/3 2000 м средняя, верхняя 
[Ac trans|Ci fib]
-12.7 -16.2 75 -18  1030.7  746  316           
06 28.02.12 240 (ЮЗ) >10 км  слаб. ливневой снег  8/3 600 м кучево-дожд., средняя, верхняя 
[Cb cap|Ac trans|Ci fib]
-6.9 -12.6 64 -10  1030.1  0.3  746  309           
09 28.02.12 240 (ЮЗ) >10 км    5/0 верхняя 
[Ci fib]
-4.8 -14.2 48 -6  1029.6  -0.2  746  307           
12 28.02.12 240 (ЮЗ) >10 км    3/0 верхняя 
[Ci fib]
-8.5 -14.9 60 -10  1030.5  0.4  746  311    -4.3  0.0     
15 28.02.12 250 (З) 4000 м    3/0 верхняя 
[Ci fib]
-11.7 -16.1 70 -15  1032.6  1.6  747  316           
18 28.02.12 240 (ЮЗ) 4000 м    ясно 
-12.2 -15.7 75 -14  1032.2  -0.4  747  316           
21 28.02.12 240 (ЮЗ) 4000 м    ясно 
-13.9 -17.4 75 -16  1032.9  0.4  747  319           
00 29.02.12 тихо ()   4000 м    ясно 
-18.6 -21.2 80 -19  1033.8  0.2  747  325  -18.6      26  равномерный
сухой снег
100% 
03 29.02.12 тихо ()   >10 км    ясно 
-16.5 -18.4 85 -17  1033.7  0.2  747  322           
06 29.02.12 060 (СВ) >10 км    ясно 
-11.3 -15.7 70 -11  1032.6  -0.3  747  315           
09 29.02.12 050 (СВ) >10 км    ясно 
-8.1 -14.3 61 -8  1031.3  -0.9  746  311           
12 29.02.12 240 (ЮЗ) >10 км    ясно 
-13 -16.5 75 -13  1031.9  -0.1  746  317    -7.5       
15 29.02.12 230 (ЮЗ) 4000 м    ясно 
-15.3 -17.2 85 -15  1031.8  -0.3  746  320           
18 29.02.12 250 (З) 4000 м    ясно 
-17.1 -18.3 91 -17  1032.1  746  322           
21 29.02.12 тихо ()   4000 м    ясно 
-19.7 -20.9 90 -20  1032.5  -0.1  746  326           
00 01.03.12 тихо ()   4000 м    ясно 
-20.9 -22.1 90 -21  1032.8  0.2  746  327  -21.4      26  равномерный
мокрый или
старый снег
100% 
03 01.03.12 тихо ()   4000 м  дымка  ясно 
-18.6 -19.8 91 -19  1033.4  0.9  747  325           
06 01.03.12 070 (В) 4000 м  дымка  ясно 
-13.5 -17 75 -13  1032.5  -0.1  747  318           
09 01.03.12 320 (СЗ) 4000 м  дымка  ясно 
-8.9 -13.3 71 -9  1031.4  -0.5  746  312           
12 01.03.12 230 (ЮЗ) 4000 м  дымка  ясно 
-13.5 -16.2 80 -13  1032.4  0.4  747  318    -8.2       
15 01.03.12 230 (ЮЗ) н/о  дымка  ясно 
-15.1 -16.4 89 -15  1032.7  0.1  747  320           
18 01.03.12 тихо ()   н/о  дымка  ясно 
-17.2 -18.4 91 -17  1032.7  -0.3  747  323           
21 01.03.12 тихо ()   н/о  дымка  3/0 верхняя 
[Ci fib]
-18.9 -20.2 89 -19  1032.9  0.1  747  325           
00 02.03.12 тихо ()   н/о  дымка  ясно 
-22.4 -23.6 89 -22  1033.5  0.1  747  329  -22.4      25  равномерный
мокрый или
старый снег
100% 
03 02.03.12 тихо ()   4000 м  дымка  ясно 
-20.3 -20.9 95 -20  1033.9  0.7  747  327           
06 02.03.12 070 (В) 4000 м  дымка  ясно 
-14 -16.7 80 -14  1032.2  -0.8  747  318           
09 02.03.12 040 (СВ) 2000 м  дым  ясно 
-8.1 -13.2 67 -8  1030.2  -1.1  746  311           
12 02.03.12 230 (ЮЗ) 2000 м  дымка  ясно 
-12.6 -15.3 80 -13  1030.7  -0.1  746  316    -7.8       
15 02.03.12 260 (З) н/о  дымка  ясно 
-14.2 -16.2 85 -14  1030.6  -0.4  745  318           
18 02.03.12 тихо ()   н/о  дымка  ясно 
-16.8 -18.1 89 -17  1030.2  -0.7  745  321           
21 02.03.12 тихо ()   н/о  дымка  ясно 
-18.3 -19.5 90 -18  1029.2  -1.2  744  323           
00 03.03.12 100 (В) н/о  дымка  9/0 верхняя 
[Ci fib]
-19.5 -20.8 89 -20  1029.1  -0.4  744  324  -19.8      24  равномерный
мокрый или
старый снег
100% 
03 03.03.12 230 (ЮЗ) 4000 м  дымка  10/3 600 м кучево-дожд., средняя, верхняя 
[Cb cap|Ac trans|Ci fib]
-10.3 -15.6 65 -13  1027.2  -0.4  743  313           
06 03.03.12 240 (ЮЗ) >10 км    9/4 2000 м средняя, верхняя 
[Ac trans|Ci fib]
-5.7 -15.9 44 -9  1026.2  -0.5  743  307           
09 03.03.12 240 (ЮЗ) >10 км  слаб. ливневой снег  10/8 600 м кучево-дожд., средняя 
[Cb cap|Ac trans]
-4.6 -14.4 46 -7  1024.6  -1.2  742  305           
12 03.03.12 230 (ЮЗ) >10 км  {ливн. осадки}  10/5 600 м кучево-дожд., средняя 
[Cb cap|Ac trans]
-6.8 -12 66 -10  1024.2  -0.8  741  307    -4  0.0     
15 03.03.12 230 (ЮЗ) 4000 м  слаб. ливневой снег  10/6 600 м кучево-дожд., верхняя 
[Cb cap|Cs]
-7.4 -10.4 79 -12  1023.4  -0.8  741  308           
18 03.03.12 220 (ЮЗ) 6{12}  4000 м  слаб. ливневой снег  10/8 600 м кучево-дожд., верхняя 
[Cb cap|Cs]
-7.3 -9.8 82 -12  1021.5  -1.8  740  307           
00 04.03.12 220 (ЮЗ) 4000 м  слаб. ливневой снег  10/6 600 м кучево-дожд., средняя, верхняя 
[Cb cap|Ac lent|Cs]
-7.5 -9.2 88 -12  1019.4  -1.1  738  307  -8    0.2  26  равномерный
сухой снег
100% 
03 04.03.12 240 (ЮЗ) >10 км  слаб. ливневой снег  10/3 600 м кучево-дожд., средняя, верхняя 
[Cb cap|Ac trans|Cs]
-6.5 -8.9 83 -9  1018.3  -1  737  305           
Время (UTC), дата Ветер
(°,м/с) 
Видим.   Явления Облачность Т
(°С)
Тd
(°С)
f(%) Тe
(°С)
Pmin
(гПа)
dP
(гПа)
Po
(мм)
O2
(г/м3)
Тmin Tmax R s Состояние
почвы